Regional Weather Roundup
Issued by NWS Portland, ME

Current Version | Previous Version | Text Only | Print | Product List | Glossary Off
Versions: 1 2 3 4 5 6 7 8 9 10 11 12 13 14 15 16 17 18 19 20 21 22 23 24 25 26 27 28 29 30 31 32 33 34 35 36 37 38 39 40 41 42 43 44 45 46 47 48 49 50
000 ASUS41 KGYX 271410 RWRGYX WEATHER ROUNDUP FOR MAINE AND NEW HAMPSHIRE NATIONAL WEATHER SERVICE GRAY ME 1000 AM EDT MON JUN 27 2022 MEZ002-005-006-010-012-015-018-020-021-024-026-027-029-271500- MAINE CITY SKY/WX TMP DP RH WIND PRES REMARKS PORTLAND LGT RAIN 66 62 87 S10 29.86S FOG SANFORD LGT RAIN 69 66 90 SW5 29.87S BAR HARBOR CLOUDY 68 63 84 S20 29.91S WISCASSET PTSUNNY 72 62 71 S8 29.88F ROCKLAND PTSUNNY 66 64 93 SW14G24 29.89S FRYEBURG LGT RAIN 68 64 87 CALM 29.85S LEWISTONAUBURN LGT RAIN 71 64 78 S12 29.85S AUGUSTA PTSUNNY 72 63 73 VRB6G21 29.85S WATERVILLE PTSUNNY 72 63 73 VRB7 29.81F BANGOR PTSUNNY 72 63 73 S13G21 29.85S GREENVILLE N/A 65 62 90 S8 29.80F MILLINOCKET PTSUNNY 71 63 75 VRB6 29.83F HOULTON SUNNY 72 61 68 SE13G18 29.81F PRESQUE ISLE MOSUNNY 72 65 78 SE12G17 29.78F FRENCHVILLE CLOUDY 68 61 78 SE14 29.75F CARIBOU PTSUNNY 71 63 75 S16G28 29.77F $$ NHZ002-005-008-009-011-012-014-271500- NEW HAMPSHIRE CITY SKY/WX TMP DP RH WIND PRES REMARKS PORTSMOUTH CLOUDY 73 62 68 S6 29.86S ROCHESTER CLOUDY 73 66 78 VRB3 29.86S NASHUA CLOUDY 74 70 87 VRB3 29.88F MANCHESTER CLOUDY 75 65 70 S13 29.85F CONCORD LGT RAIN 71 66 84 CALM 29.86S LACONIA LGT RAIN 67 66 97 S7 29.86S BERLIN LGT RAIN 70 64 81 S5 29.82S WHITEFIELD LGT RAIN 67 65 93 NW5 29.82S FOG JAFFREY CLOUDY 72 64 76 S10 29.91S KEENE LGT RAIN 70 68 93 SW7 N/A LEBANON LGT RAIN 69 63 81 S7 29.84F MT WASHINGTON LGT RAIN 54 54 100 W46G54 N/A VSB 0 $$ VTZ005-007-008-271500- VERMONT CITY SKY/WX TMP DP RH WIND PRES REMARKS ST JOHNSBURY N/A 65 62 90 MISG 29.82R MONTPELIER LGT RAIN 68 64 87 W5 29.88 FOG BURLINGTON CLOUDY 70 68 93 S6 29.83R $$ MAZ007-012-024-CTZ003-RIZ002-NYZ038-NYZ072-271500- SOUTHERN NEW ENGLAND AND NY CITY SKY/WX TMP DP RH WIND PRES REMARKS BOSTON CLOUDY 75 65 70 SW17 29.90S WORCESTER LGT RAIN 69 67 93 SW13G23 29.93S NANTUCKET SUNNY 71 67 87 S16G24 30.02F PROVIDENCE CLOUDY 72 66 81 SW16G22 29.96S HARTFORD CLOUDY 73 67 81 S10 29.91F ALBANY LGT RAIN 70 67 90 S7G17 29.89R NEW YORK CITY CLOUDY 76 66 71 SW12 29.94S $$ ANZ081-ANZ082-ANZ150-NHZ014-MEZ023>029-271500- COASTAL MARINE OBSERVATIONS STATION/POSITION TIME TEMP WIND PRES WAVE AIR SEA DIR/SP/G HT/PER (UTC) (F) (DEG/KT/KT) (MB) (FT/S) MOUNT DESERT ROC 1400 60 170/ 23/ 25 1013.1S MATINICUS ROCK 1400 61 190/ 26/ 28 1012.5F ISLE OF SHOALS 1400 69 190/ 24/ 25 1010.7F JEFFREYS LEDGE 1356 63 N/A 5/ 4 CASHES LEDGE BUO 1350 64 62 190/ 19/ 25 1012.4F 5/ 5 GEORGES BANK BUO 1350 60 1020.4S 3/ 8 $$ .............KEY.............. WCI - WIND CHILL TC - TEMPERATURE IN CELSIUS VSB - VISIBILITY IN MILES HX - HEAT INDEX FAIR- INDICATES FEW OR NO CLOUDS BELOW 12,000 FT, WITH NO SIGNIFICANT WEATHER AND/OR OBSTRUCTIONS TO VISIBILITY.

USA.gov is the U.S. government's official web portal to all federal, state and local government web resources and services.